Temperature
19 19 19 19 19 19 19 19 19 19 18 18 19 19 19 19 19 18 19 19 19 19 19 19 19 19 19 19 18 18 19 18 18 17 17 17 17 17 17 17 17 16 16
19 19 19 18 18 19 19 19 19 19 19 19 19 19 19 19 19 19 19 19 19 19 19 19 19 19 19 19 19 19 19 19 18 18 17 17 17 17 17 17 17 17 16
19 19 19 19 19 18 18 19 18 18 19 19 19 19 19 19 19 19 19 18 19 19 19 19 19 19 19 19 19 19 19 19 19 18 18 17 18 17 17 17 17 17 17
19 19 19 19 19 19 19 19 18 18 19 19 19 19 19 19 19 19 19 19 19 19 19 19 19 19 19 19 19 19 19 19 19 18 18 18 18 18 18 18 18 17 17
19 18 18 18 19 19 19 19 19 19 19 19 19 19 19 19 19 19 19 19 18 18 19 19 19 19 19 19 19 19 19 19 19 19 18 18 18 18 17 18 18 17 17
19 18 18 18 18 19 19 19 19 19 19 19 18 18 19 19 19 19 19 19 19 19 19 19 19 19 19 19 19 19 19 18 19 19 19 19 18 18 18 18 18 18 17
18 18 18 18 18 18 18 19 19 19 19 19 18 18 18 19 19 19 19 19 19 19 19 19 19 19 19 19 19 19 18 18 18 18 19 19 19 18 18 18 18 18 17
18 18 18 18 18 18 18 18 18 18 18 18 18 18 18 18 19 20 20 20 19 19 19 19 19 19 19 19 19 18 18 18 18 18 18 18 18 18 18 17 17 17 17
19 19 18 18 18 17 17 17 17 17 17 17 17 17 17 18 19 20 20 20 19 19 19 19 19 19 19 18 18 18 18 18 18 18 18 18 18 18 18 17 17 17 17
17 18 18 17 17 17 17 16 16 16 16 16 16 16 16 17 17 17 18 19 19 18 18 18 18 18 18 18 18 18 18 17 18 18 18 18 18 18 18 17 17 17 16
17 17 17 16 16 16 16 16 16 15 15 15 15 15 16 16 16 16 16 17 17 17 17 17 18 18 17 17 17 17 17 17 17 17 17 17 17 17 17 17 17 17 16
16 16 16 15 15 15 15 15 15 15 15 15 15 15 15 16 16 16 15 16 16 17 17 17 17 17 17 17 17 17 17 17 17 17 17 17 17 17 17 17 17 16 16
15 15 15 15 15 14 14 14 14 14 15 15 15 15 15 15 15 15 15 15 15 16 17 17 16 16 16 16 16 16 16 16 16 16 16 17 17 17 17 17 17 16 16
14 14 15 14 14 14 14 14 14 14 14 14 14 14 15 15 15 15 15 14 15 16 16 16 16 16 16 15 15 16 16 16 16 16 16 16 16 16 16 16 16 16 16
14 14 14 14 14 14 14 14 14 14 14 14 14 14 14 14 14 14 14 14 14 14 15 16 16 15 15 15 15 15 15 15 15 15 15 15 15 15 15 15 15 16 16
13 13 13 13 13 13 13 14 14 14 14 14 14 14 14 14 14 14 14 14 14 14 14 15 14 14 15 15 14 15 15 15 15 15 15 14 14 14 14 15 15 16 16
12 12 13 13 13 13 13 13 14 14 14 14 14 14 13 14 14 14 14 14 14 14 14 14 14 14 14 14 15 15 15 15 15 15 15 14 14 14 14 15 15 15 16
12 12 12 12 12 12 13 13 13 13 13 13 13 13 13 13 13 13 13 13 13 14 14 14 14 14 13 13 14 14 14 14 14 14 14 14 14 14 14 14 14 15 15
11 11 12 12 12 12 12 13 13 13 13 13 13 12 12 12 13 13 13 13 13 13 14 14 14 13 13 13 13 13 13 14 13 13 13 13 13 13 13 14 14 14 14
11 11 11 12 12 12 12 12 12 12 12 12 12 12 12 12 12 12 12 12 13 13 14 14 13 13 13 13 13 13 13 13 13 13 13 13 13 13 13 13 13 13 13
11 11 11 12 12 12 12 12 12 12 12 12 12 12 12 12 12 12 12 13 13 13 13 13 12 12 12 13 12 12 12 12 12 12 12 12 12 12 12 12 13 13 13
11 11 11 12 12 12 12 12 12 11 12 12 12 12 12 12 12 12 12 12 12 12 12 12 12 12 12 12 12 12 12 12 12 12 12 12 12 12 12 12 12 12 13
11 11 11 12 12 12 11 11 11 11 11 12 12 12 11 11 11 12 12 12 12 12 12 12 12 12 12 12 12 12 12 12 11 11 12 11 11 11 11 11 12 12 12
11 11 12 12 12 12 11 11 11 11 11 11 11 11 12 11 11 11 11 11 11 11 11 11 12 12 12 12 12 12 12 12 11 11 11 11 11 11 11 11 11 11 12
11 11 12 12 12 12 12 11 11 11 11 11 11 11 11 11 11 11 11 11 11 11 11 11 12 12 11 11 11 11 11 11 11 11 11 11 11 11 11 10 11 11 11
12 11 12 12 12 12 12 11 11 11 11 11 11 11 11 11 11 11 11 11 11 11 12 12 12 12 11 11 11 11 10 10 10 10 10 10 10 10 10 10 10 10 11
Wind_Speed
8 9 4 5 6 7 7 6 6 4 5 6 6 5 5 7 9 12 8 15 19 20 19 19 19 20 21 21 22 23 23 22 20 21 21 21 21 20 21 21 21 20 20
8 8 6 6 5 7 6 5 8 7 7 6 6 7 7 9 8 9 10 11 16 19 21 21 22 22 22 23 23 23 23 22 21 20 21 21 21 20 20 20 20 20 20
10 8 6 6 6 7 6 4 4 4 5 6 7 9 9 6 6 7 8 9 12 18 24 25 25 25 24 24 24 23 23 23 21 21 21 22 21 21 21 20 20 20 20
12 7 7 7 6 5 3 3 3 4 5 6 7 7 6 4 6 6 8 11 14 15 19 26 26 27 26 26 26 24 24 23 22 21 21 22 22 21 20 20 20 20 20
13 7 8 7 6 5 5 6 6 5 6 7 7 6 6 5 6 9 8 9 11 14 15 19 29 30 28 28 27 26 25 24 22 21 21 21 22 22 21 20 20 20 20
10 7 8 9 7 7 7 7 7 6 6 6 8 8 6 6 7 9 11 9 9 13 15 13 17 23 28 28 28 27 26 25 23 23 23 23 23 23 23 22 22 21 20
7 6 8 6 7 7 8 8 8 8 7 5 4 6 9 11 10 9 9 9 10 9 10 10 9 13 16 28 29 28 27 26 25 24 25 25 25 25 25 25 24 23 22
7 8 8 7 7 7 9 9 8 7 6 6 5 5 5 6 8 9 8 9 9 7 7 6 7 8 9 11 19 26 27 26 26 26 25 25 24 24 25 25 24 24 23
9 9 9 8 7 8 9 9 9 10 8 6 6 6 5 4 3 4 3 2 2 3 5 5 5 5 7 6 11 19 25 26 28 28 26 25 25 25 24 25 25 25 24
10 9 9 8 8 7 7 7 7 6 6 5 4 6 7 3 1 3 4 4 5 5 6 5 6 5 7 5 9 14 18 22 27 27 25 25 25 25 25 25 26 25 25
7 8 8 8 7 6 5 4 3 2 2 2 4 4 4 2 3 3 4 4 4 4 4 4 4 4 5 4 6 6 12 18 23 25 22 20 20 21 22 24 25 25 25
6 8 8 7 7 6 7 6 5 5 4 5 5 4 4 2 1 2 3 3 4 4 5 3 2 3 3 5 6 12 8 9 14 14 13 12 11 11 12 15 19 22 24
6 8 9 8 8 8 8 7 7 7 7 6 4 4 4 3 1 1 2 3 3 4 4 2 2 1 1 3 5 9 10 6 6 8 9 9 8 7 8 10 13 15 18
4 5 7 7 8 8 8 7 7 7 5 5 4 4 3 3 2 3 2 1 3 3 3 2 2 4 3 2 4 4 6 3 3 5 5 6 7 8 10 11 13 14 16
3 3 2 4 5 6 6 5 5 5 5 5 4 4 3 2 1 0 1 2 2 3 3 2 3 4 3 3 2 3 3 2 6 6 7 8 8 9 10 12 14 16 17
3 3 3 3 1 2 3 3 4 4 5 4 4 4 2 1 2 0 0 1 1 1 3 4 5 6 6 7 6 6 5 5 8 9 9 8 7 8 9 11 13 15 17
4 3 3 3 1 1 1 1 3 5 5 5 5 4 4 5 3 4 3 3 2 2 3 3 3 3 5 5 6 6 7 4 5 10 11 10 8 7 8 10 12 14 16
4 3 2 1 2 1 1 1 2 5 5 5 6 7 6 6 6 6 5 4 3 1 1 3 2 3 3 4 5 6 6 5 3 7 11 10 8 7 8 8 10 13 15
3 3 3 3 2 1 2 4 5 6 7 8 7 7 8 8 8 6 6 5 4 2 1 1 2 3 3 4 4 5 6 6 7 5 6 6 5 6 7 6 8 11 14
4 3 2 1 2 4 5 6 6 7 8 9 9 9 9 8 6 6 6 7 6 5 4 3 5 5 6 7 7 6 6 6 6 8 6 5 5 5 5 6 7 9 13
1 1 1 1 3 5 6 6 7 9 8 9 9 9 9 8 8 7 7 6 7 7 7 6 6 6 6 7 8 7 6 5 2 5 6 6 5 5 5 7 6 8 11
2 0 1 4 7 8 12 12 8 8 8 8 7 7 8 9 6 7 8 8 9 8 6 6 6 6 7 6 7 8 6 5 3 4 3 4 4 5 5 5 9 8 9
4 2 4 8 8 8 12 12 9 7 8 9 9 9 9 10 11 8 2 0 5 9 9 6 6 5 6 6 7 8 7 4 3 4 3 2 2 3 4 6 11 9 9
5 4 7 8 7 6 10 12 10 9 8 8 9 10 9 9 11 11 9 8 7 7 6 4 3 5 5 6 6 7 6 2 0 2 4 4 3 2 2 3 10 11 10
6 6 7 8 6 4 6 11 11 5 7 10 10 10 9 8 13 14 9 8 9 9 8 8 8 9 9 8 6 6 8 7 5 3 6 5 4 3 1 2 4 8 10
6 7 7 7 7 5 4 7 8 1 6 8 8 9 11 8 10 12 7 7 8 8 10 11 7 4 1 5 7 6 6 6 6 5 8 6 5 5 4 1 2 3 4
Wind_Direction
229 234 219 215 233 230 195 206 224 229 251 258 259 266 268 254 232 242 227 208 213 217 220 224 227 231 235 237 237 239 243 244 240 234 230 229 229 230 230 231 231 232 230
222 224 217 210 220 243 239 212 208 211 220 230 242 247 247 250 234 223 235 235 228 227 228 229 230 232 234 236 236 236 237 239 234 226 225 229 228 225 227 230 230 230 229
217 213 218 220 222 238 248 257 251 240 235 236 236 239 237 234 251 246 242 251 252 238 230 228 230 232 234 236 237 237 234 235 230 222 221 225 227 224 223 225 227 228 227
221 214 223 225 219 227 230 241 254 269 268 263 255 243 232 219 238 246 243 236 240 247 235 225 226 230 233 236 238 237 234 232 228 223 221 222 225 226 223 223 224 225 225
221 211 224 227 218 225 228 236 231 230 246 255 261 254 236 220 230 247 246 247 249 245 245 224 221 225 228 233 236 236 234 231 227 223 221 220 222 225 224 223 222 223 223
226 220 226 221 219 229 226 220 223 226 233 240 261 273 273 247 228 230 237 242 249 253 251 240 220 225 227 228 230 232 232 231 226 223 223 221 219 219 221 222 221 221 222
264 247 253 248 231 238 242 233 226 225 225 212 232 263 261 250 241 232 227 230 238 246 245 241 222 214 223 227 227 228 229 229 226 223 224 223 220 217 217 220 220 220 221
258 253 248 253 249 249 251 247 240 236 227 208 207 238 255 247 244 240 220 217 227 240 248 245 244 234 233 222 223 227 230 230 229 225 223 224 223 220 219 220 221 220 222
236 234 241 246 250 247 247 243 238 237 235 233 223 231 246 245 349 334 330 230 229 274 270 259 264 276 276 232 207 221 230 232 234 232 227 225 224 223 221 220 222 222 223
235 231 233 237 245 248 247 249 243 241 241 250 265 255 259 288 328 331 331 339 6 346 328 323 314 309 286 237 228 232 235 238 240 237 232 230 226 223 222 223 224 225 224
227 225 223 225 225 229 231 228 228 227 228 250 265 273 268 259 204 227 279 310 322 301 295 302 287 298 309 292 250 269 251 240 238 236 235 237 237 231 225 226 229 229 227
217 212 215 218 219 222 220 214 210 215 212 231 252 269 277 274 232 224 256 284 291 293 292 274 276 282 310 339 359 21 352 261 240 237 233 233 237 236 229 228 233 234 234
219 213 217 225 229 228 222 212 210 214 215 223 244 271 281 270 252 216 232 262 286 293 281 260 237 238 17 38 27 5 345 315 243 222 214 214 221 232 238 241 242 244 245
211 199 215 230 235 231 223 215 217 212 207 210 223 244 259 270 240 220 224 287 318 314 323 322 47 68 33 37 66 350 348 334 219 211 217 229 246 260 266 267 266 263 259
152 148 198 226 231 231 227 220 212 200 192 195 203 209 218 238 234 25 15 30 359 332 330 5 27 31 25 23 68 328 349 179 197 215 232 246 260 274 281 282 279 274 267
117 133 120 120 160 208 200 187 190 191 181 173 166 156 166 153 95 51 2 359 7 306 308 348 19 14 15 3 12 333 304 198 212 229 240 248 262 282 291 290 284 279 273
38 55 71 85 118 210 191 186 176 159 147 140 140 129 100 73 48 19 22 35 22 11 322 338 14 5 24 9 346 331 313 252 215 226 238 243 251 274 293 296 296 296 289
8 354 350 329 272 220 187 197 136 117 115 100 84 77 68 65 52 41 13 15 11 31 339 338 341 8 23 357 345 340 337 338 315 236 230 236 247 271 289 302 312 312 306
297 290 280 281 297 79 90 85 84 83 81 79 75 67 57 50 38 19 10 23 13 15 348 347 34 42 24 358 347 352 5 2 348 329 235 234 264 285 293 304 314 317 313
278 278 269 328 49 85 96 93 87 80 80 76 68 61 53 48 37 6 34 27 14 2 12 30 53 45 22 359 1 355 11 14 16 5 11 46 30 10 337 308 305 316 318
229 8 30 63 88 86 77 76 93 92 94 91 83 78 71 68 63 50 56 35 30 27 22 21 40 35 18 9 4 349 352 345 33 29 24 31 30 28 15 354 336 337 331
124 76 14 59 63 69 44 39 87 97 98 100 104 111 97 56 51 59 66 54 49 44 23 17 30 19 15 5 352 341 335 343 5 7 15 24 22 20 9 4 357 1 355
153 148 86 79 75 54 40 38 67 97 83 72 63 58 62 40 23 1 355 90 71 53 41 45 33 1 355 352 344 341 347 9 14 339 338 20 23 8 347 6 9 14 22
152 129 106 99 93 70 42 35 33 99 91 84 79 79 65 41 21 8 18 24 29 15 352 17 347 324 335 338 333 331 345 4 326 21 1 2 4 353 338 2 17 23 32
148 146 128 123 117 94 46 39 23 101 92 75 65 66 70 50 23 21 23 20 10 354 340 318 285 279 300 318 318 348 1 4 357 34 20 0 345 317 319 3 11 30 41
164 161 149 146 145 141 98 61 26 22 125 118 106 86 70 64 39 25 24 22 3 333 322 315 306 276 326 39 20 21 12 6 1 8 10 355 356 346 333 336 3 2 25
Height
1532 1534 1535 1535 1536 1538 1538 1538 1538 1538 1538 1539 1540 1540 1540 1540 1540 1541 1541 1540 1540 1540 1539 1538 1538 1537 1537 1536 1537 1538 1539 1540 1541 1543 1544 1545 1546 1547 1548 1549 1550 1551 1552
1528 1529 1530 1530 1531 1533 1534 1534 1533 1533 1532 1533 1534 1535 1534 1535 1536 1537 1537 1537 1537 1536 1535 1535 1534 1533 1533 1533 1532 1533 1534 1535 1536 1538 1539 1540 1542 1543 1544 1545 1546 1547 1548
1523 1523 1524 1524 1525 1528 1529 1530 1530 1530 1528 1527 1527 1528 1529 1530 1530 1531 1532 1532 1532 1531 1530 1530 1530 1529 1529 1529 1529 1529 1529 1530 1531 1532 1534 1535 1537 1539 1540 1541 1542 1543 1544
1520 1519 1519 1518 1520 1521 1523 1523 1524 1525 1524 1523 1522 1521 1522 1523 1524 1525 1526 1526 1526 1526 1525 1525 1525 1525 1525 1525 1525 1525 1525 1525 1526 1528 1529 1531 1533 1534 1536 1536 1538 1539 1540
1515 1515 1514 1514 1515 1515 1516 1517 1518 1519 1519 1519 1518 1517 1516 1515 1515 1518 1519 1520 1520 1521 1521 1520 1519 1519 1519 1520 1520 1521 1521 1521 1521 1523 1524 1526 1528 1530 1531 1532 1533 1535 1536
1511 1510 1510 1510 1510 1510 1510 1511 1512 1513 1513 1514 1515 1514 1512 1509 1507 1509 1511 1512 1514 1515 1515 1515 1514 1513 1514 1514 1515 1515 1516 1517 1518 1518 1520 1521 1522 1524 1525 1527 1529 1530 1531
1506 1505 1505 1505 1505 1505 1506 1506 1505 1506 1507 1508 1509 1508 1507 1505 1501 1501 1503 1506 1508 1509 1510 1510 1510 1508 1508 1508 1508 1509 1510 1511 1513 1513 1515 1516 1517 1518 1519 1521 1523 1525 1526
1499 1499 1498 1499 1499 1499 1500 1501 1500 1499 1500 1501 1502 1503 1502 1500 1496 1495 1497 1500 1502 1504 1505 1505 1505 1505 1504 1503 1502 1503 1504 1506 1507 1507 1509 1510 1512 1513 1514 1515 1517 1519 1521
1491 1491 1491 1491 1491 1491 1492 1493 1494 1494 1493 1494 1495 1497 1496 1493 1491 1490 1493 1496 1498 1499 1499 1500 1500 1499 1498 1497 1496 1497 1498 1499 1500 1502 1503 1505 1506 1508 1509 1510 1512 1514 1515
1482 1482 1482 1482 1483 1483 1484 1486 1486 1487 1487 1488 1489 1489 1490 1489 1488 1487 1490 1492 1493 1492 1493 1493 1493 1493 1493 1492 1491 1491 1491 1492 1493 1495 1496 1498 1501 1502 1503 1504 1505 1507 1509
1474 1474 1474 1474 1475 1476 1477 1479 1480 1481 1482 1482 1483 1484 1484 1484 1484 1486 1487 1488 1488 1488 1488 1488 1487 1487 1488 1487 1487 1486 1486 1487 1488 1490 1492 1494 1496 1497 1497 1497 1499 1500 1502
1467 1467 1467 1468 1469 1470 1471 1473 1474 1476 1477 1478 1479 1479 1480 1480 1481 1483 1484 1484 1483 1484 1484 1483 1482 1482 1483 1483 1483 1482 1482 1482 1483 1484 1486 1488 1489 1490 1490 1491 1492 1493 1495
1462 1462 1462 1462 1463 1465 1466 1468 1470 1471 1473 1474 1475 1475 1476 1477 1479 1480 1480 1480 1480 1481 1481 1480 1479 1480 1480 1479 1479 1478 1478 1478 1478 1479 1480 1481 1482 1483 1483 1484 1484 1485 1486
1457 1458 1458 1459 1459 1460 1462 1464 1466 1467 1469 1470 1471 1472 1474 1475 1476 1477 1477 1477 1478 1479 1480 1480 1480 1479 1478 1477 1476 1476 1474 1473 1472 1472 1473 1474 1475 1476 1476 1477 1478 1478 1479
1453 1454 1455 1456 1457 1458 1459 1460 1462 1464 1465 1466 1468 1470 1472 1473 1473 1474 1474 1475 1477 1478 1479 1480 1479 1478 1476 1475 1475 1473 1471 1469 1468 1467 1468 1468 1468 1469 1469 1470 1470 1471 1472
1450 1452 1453 1454 1456 1457 1457 1458 1459 1461 1463 1465 1466 1468 1470 1471 1471 1472 1472 1474 1476 1478 1478 1478 1477 1475 1473 1473 1472 1471 1468 1466 1465 1465 1464 1463 1463 1463 1463 1463 1464 1464 1464
1449 1451 1453 1454 1455 1456 1456 1457 1459 1460 1462 1464 1465 1467 1468 1469 1469 1470 1472 1473 1475 1476 1476 1475 1474 1473 1472 1470 1469 1467 1465 1463 1461 1461 1461 1460 1458 1458 1458 1458 1458 1457 1457
1450 1451 1453 1455 1456 1457 1457 1458 1459 1461 1463 1464 1465 1466 1467 1468 1469 1470 1472 1473 1474 1474 1474 1473 1473 1472 1471 1469 1467 1465 1462 1460 1458 1458 1458 1456 1455 1454 1454 1453 1452 1451 1450
1452 1452 1454 1455 1457 1458 1458 1459 1461 1462 1464 1465 1466 1467 1468 1469 1471 1472 1473 1473 1474 1474 1474 1473 1473 1472 1471 1469 1467 1464 1460 1457 1456 1456 1454 1452 1450 1450 1448 1447 1446 1444 1443
1454 1454 1455 1456 1458 1459 1460 1461 1462 1463 1465 1467 1468 1470 1471 1472 1474 1474 1474 1474 1474 1474 1474 1474 1473 1472 1471 1469 1466 1463 1460 1458 1457 1454 1451 1448 1446 1445 1445 1443 1441 1439 1438
1456 1457 1457 1459 1461 1462 1462 1463 1464 1465 1467 1469 1471 1473 1475 1475 1476 1477 1476 1476 1475 1474 1474 1474 1473 1472 1470 1466 1464 1463 1462 1461 1458 1454 1450 1446 1444 1442 1442 1440 1437 1435 1434
1459 1460 1461 1462 1463 1463 1465 1466 1467 1468 1470 1472 1474 1476 1477 1478 1479 1479 1479 1478 1477 1477 1476 1475 1474 1473 1470 1468 1466 1464 1463 1460 1458 1454 1450 1447 1444 1441 1439 1438 1435 1431 1430
1460 1462 1464 1464 1465 1466 1468 1469 1471 1472 1473 1475 1476 1478 1479 1480 1481 1481 1481 1481 1480 1479 1478 1477 1475 1474 1472 1470 1468 1465 1463 1461 1459 1455 1451 1448 1445 1442 1440 1436 1433 1430 1428
1461 1463 1465 1466 1467 1469 1470 1472 1473 1474 1476 1477 1478 1480 1481 1482 1482 1482 1481 1481 1480 1479 1479 1477 1476 1475 1474 1472 1470 1468 1465 1462 1459 1456 1453 1450 1447 1444 1441 1438 1433 1430 1428
1461 1464 1465 1467 1469 1470 1472 1474 1475 1477 1478 1479 1480 1481 1483 1483 1483 1482 1481 1481 1480 1479 1478 1477 1477 1476 1475 1473 1471 1467 1464 1461 1460 1458 1455 1452 1449 1446 1443 1440 1435 1432 1430
1461 1463 1465 1468 1470 1471 1473 1475 1476 1478 1479 1481 1482 1483 1484 1484 1484 1483 1481 1481 1480 1480 1479 1478 1477 1476 1475 1473 1470 1468 1465 1462 1460 1459 1456 1454 1451 1447 1444 1442 1438 1435 1432